Location: Valdemorillo
(40.5006°N, 4.0671°W)
Time: 00:05:56
(UTC+00:00)

Daily predictions for brighter satellites

Satellite Brightness Start Highest point End
(mag) Time Altitude Azimuth Time Altitude Azimuth Time Altitude Azimuth
Cosmos 2082 Rocket 4.4 03:52:50 18° NE 03:53:54 19° NE 03:57:46 10° E
COSMOS 2455 4.1 03:57:05 36° ENE 03:57:05 36° ENE 04:01:57 10° ESE
Cosmos 2278 Rocket 3.4 04:13:39 36° NE 04:13:39 36° NE 04:17:01 10° NNE
USA 215 3.8 04:10:57 10° ESE 04:17:08 48° NNE 04:17:51 46° NNE
Cosmos 2221 4.0 04:32:04 35° E 04:32:04 35° E 04:35:29 10° SE
Cosmos 1833 Rocket 2.9 04:34:00 68° ESE 04:34:00 68° ESE 04:39:00 10° SSE
Hubble Space Telescope 3.5 04:45:50 11° SSE 04:45:50 11° SSE 04:47:02 10° SSE
Cosmos 1763 Rocket 3.4 04:52:50 81° S 04:52:50 81° S 04:57:50 10° SSE
Envisat 3.8 04:56:02 10° NNE 05:01:00 50° E 05:05:55 10° S
Cosmos 1076 Rocket 4.0 05:00:49 10° S 05:05:06 60° E 05:09:25 10° NNE
YAOGAN 6 3.0 05:05:27 10° NNE 05:09:06 62° E 05:12:43 10° S
COSMO-SKYMED 1 3.5 05:06:28 10° SSE 05:10:38 47° ENE 05:14:38 11° N
Cosmos 2084 Rocket 3.9 05:13:26 25° S 05:15:23 51° ESE 05:19:08 10° NE
NOSS 3-2 (A) 3.5 05:10:51 10° SSW 05:16:12 68° ESE 05:22:20 10° NE
FALCON 9 DEB 4.2 05:19:05 36° ESE 05:19:05 36° ESE 05:21:28 10° ENE
Cosmos 1464 Rocket 3.9 05:13:14 10° NNW 05:19:32 69° W 05:25:42 10° S
H-2A R/B 2.6 05:18:24 10° NNE 05:22:06 84° ESE 05:25:48 10° S
CENTAUR R/B 2.9 05:17:23 10° SSW 05:22:53 60° ESE 05:29:26 10° NE
Meteor 2-3 Rocket 4.1 05:23:29 10° S 05:29:02 67° E 05:34:41 10° NNE
Gbstr 26 Del rocket 4.2 05:28:19 25° N 05:29:27 29° NNE 05:33:10 10° E
Landsat 5 4.0 05:26:39 10° SSE 05:31:05 64° ENE 05:35:33 10° N
Tiangong 3.1 05:32:03 18° SSW 05:32:03 18° SSW 05:33:44 10° SSE
SKYMED 3 4.5 05:30:19 10° SSE 05:34:39 89° ENE 05:38:59 10° NNW
COSMOS 2406 3.5 05:34:29 33° WNW 05:36:12 42° WSW 05:41:28 10° S
Cosmos 1842 Rocket 3.8 05:36:09 38° NW 05:37:11 45° W 05:41:24 10° SSW
NOSS 8 (A) 4.2 05:35:12 24° SW 05:37:13 89° NNW 05:40:15 10° NE
Cosmos 1850 Rocket 4.4 05:35:29 26° WSW 05:37:59 41° WNW 05:43:03 10° N
Cosmos 2082 Rocket 2.1 05:34:44 21° NNW 05:38:33 70° WSW 05:44:05 10° SSE
Cosmos 2297 4.0 05:33:39 10° SSW 05:39:22 73° ESE 05:45:06 10° NNE
COSMOS 2455 3.4 05:40:18 29° WNW 05:42:19 37° WSW 05:47:47 10° S
Kosmos-917 4.3 05:43:20 33° NNW 05:43:20 33° NNW 05:46:23 10° NNE
USA 238 DEB 3.8 05:41:27 10° SSW 05:47:50 75° ESE 05:54:35 10° NE
USA 238 3.8 05:41:33 10° SSW 05:47:56 75° ESE 05:54:41 10° NE
Cosmos 1782 3.1 05:50:48 10° N 05:54:45 67° E 05:58:40 10° SSE
Cosmos 2278 Rocket 3.3 05:55:34 21° WNW 05:55:56 21° NW 06:00:12 10° N
Cosmos 1900 4.4 05:52:50 20° NW 05:56:14 61° WSW 06:01:11 10° SSE
NOAA 11 4.4 05:52:04 10° NNE 05:57:33 77° ESE 06:03:01 10° S
MOS 1-B Rocket 4.4 05:51:33 10° S 05:58:15 49° W 06:04:07 10° NNW
SKYMED 2 3.8 05:54:27 10° S 05:58:39 48° W 06:02:53 10° NNW
CZ-2C R/B 3.6 05:54:26 10° NNE 05:59:10 57° E 06:04:02 10° S
CZ-2C R/B 2.8 05:53:55 10° S 05:59:23 57° W 06:04:47 10° NNW
Cosmos 1943 Rocket 2.1 05:53:45 10° SSW 05:59:25 79° WNW 06:05:07 10° NNE
USA 215 3.5 05:53:41 10° SSE 06:00:03 54° SW 06:05:12 16° WNW
Cosmos 2034 Rocket 4.2 05:55:05 10° NNW 06:00:56 46° W 06:06:51 10° SSW
Cosmos 2344 3.8 05:58:41 10° WSW 06:05:47 45° NW 06:13:11 10° NNE
IRAS Rocket 4.3 06:01:05 10° SSE 06:06:37 82° ENE 06:12:09 10° NNW
Cosmos 540 Rocket 4.2 06:05:18 17° NW 06:08:25 30° W 06:12:51 10° SSW
Cosmos 1933 3.5 06:04:31 10° NNW 06:08:25 50° W 06:12:16 10° SSW
Cosmos 2221 4.0 06:08:59 17° W 06:08:59 17° W 06:11:30 10° SW
SJ-7 4.4 06:08:43 10° N 06:12:56 76° WNW 06:17:06 10° SSW
ADEOS 3.5 06:07:58 10° N 06:13:09 66° WNW 06:18:19 10° SSW
OAO 3 Rocket 4.1 06:09:09 13° WSW 06:13:20 43° S 06:17:59 10° ESE
Iridium 2 3.6 06:10:39 10° S 06:14:25 80° W 06:18:13 10° N
Meteor 1-31 Rocket 3.6 06:11:17 10° N 06:14:39 29° WNW 06:18:03 10° SW
Cosmos 1833 Rocket 4.3 06:15:46 14° W 06:16:32 14° W 06:19:19 10° SW
Cosmos 2151 3.7 06:13:31 10° SW 06:17:20 32° WNW 06:21:12 10° NNW
BREEZE-M DEB (TANK) 4.2 06:03:17 10° SW 06:19:10 68° SSE 06:23:11 10° ENE
Tsikada Rocket 4.3 06:14:12 10° SSW 06:20:00 42° WNW 06:25:53 10° N
CZ-4C R/B 3.4 06:18:38 10° SSW 06:21:37 35° W 06:24:35 10° NNW
Cosmos 2279 Rocket 4.2 06:15:59 10° N 06:22:12 76° E 06:28:22 10° SSE
Hubble Space Telescope 3.2 06:23:35 10° SW 06:26:00 15° S 06:28:26 10° SE
Cosmos 1812 2.7 06:23:08 10° N 06:27:00 87° W 06:30:50 10° S
Cosmos 1634 Rocket 4.1 06:22:56 10° NNW 06:29:07 60° W 06:35:14 10° S
H-2A R/B 2.0 06:27:10 10° SSE 06:31:20 86° ENE 06:35:37 10° NNW
FALCON 9 DEB 3.0 06:30:47 10° WSW 06:33:35 46° NW 06:36:24 10° NE
Cosmos 1939 Rocket 2.8 06:30:34 10° N 06:34:33 87° WNW 06:38:28 10° SSW
Cosmos 1766 Rocket 3.5 06:32:07 10° SSW 06:36:28 73° W 06:40:49 10° N
Cosmos 2098 Rocket 2.7 06:33:34 10° SSW 06:36:42 47° WNW 06:40:30 10° N
FALCON 9 R/B 3.9 06:16:48 10° W 06:37:13 60° SSW 06:42:46 10° ESE
Genesis I 4.5 06:33:37 10° NNW 06:37:31 40° NE 06:41:21 10° ESE
SMAP 3.2 06:33:34 10° NNE 06:38:15 81° ESE 06:42:53 10° S
Envisat 4.2 06:36:02 10° NNW 06:39:37 20° WNW 06:43:10 10° WSW
CZ-2D R/B 4.4 06:37:20 10° NNE 06:41:02 47° E 06:44:41 10° S
FALCON 9 DEB 3.0 06:40:36 10° SW 06:43:57 77° NW 06:47:21 10° NE
COSMO-SKYMED 1 4.3 06:44:37 10° SW 06:47:02 15° W 06:49:28 10° WNW
BREEZE-M DEB 4.0 06:44:41 10° SW 06:47:41 61° SE 06:56:28 10° ENE
DMSP B5D2-2 4.4 06:42:58 10° S 06:48:01 48° W 06:53:04 10° NNW
FALCON 9 DEB 3.9 06:45:34 10° W 06:48:01 25° NNW 06:50:29 10° NNE
Cosmos 2369 Rocket 2.2 06:45:23 10° SSW 06:50:56 67° WNW 06:56:31 10° NNE
